| time (UTC) | temp F | wind direction | speed knots | gust knots | rain 1hr in | rain 24hr in | rain mn in | humidity % | barometer mb |
| 20260507232006 | 46 | 0 | 0.0 | 0.0 | 0.00 | 0.00 | 0.00 | 87 | 1016.7 |
| 20260507231006 | 46 | 90 | 0.0 | 1.7 | 0.00 | 0.00 | 0.00 | 87 | 1016.8 |
| 20260507230218 | 46 | 84 | 0.0 | 1.7 | 0.00 | 0.00 | 0.00 | 87 | 1016.7 |
| 20260507225007 | 47 | 0 | 0.0 | 0.0 | 0.00 | 0.00 | 0.00 | 87 | 1017.0 |
| 20260507224003 | 47 | 0 | 0.0 | 0.0 | 0.00 | 0.00 | 0.00 | 86 | 1017.1 |
| 20260507223004 | 47 | 315 | 0.0 | 1.7 | 0.00 | 0.00 | 0.00 | 86 | 1017.1 |
| 20260507222005 | 48 | 315 | 0.9 | 1.7 | 0.00 | 0.00 | 0.00 | 85 | 1017.1 |
| 20260507221004 | 48 | 315 | 0.0 | 1.7 | 0.00 | 0.00 | 0.00 | 84 | 1017.0 |
| 20260507220004 | 48 | 315 | 0.0 | 0.9 | 0.00 | 0.00 | 0.00 | 84 | 1017.1 |
| 20260507215003 | 48 | 0 | 0.0 | 0.0 | 0.00 | 0.00 | 0.00 | 83 | 1017.1 |
| 20260507214006 | 48 | 0 | 0.0 | 0.0 | 0.00 | 0.00 | 0.00 | 83 | 1017.1 |
| 20260507213006 | 48 | 0 | 0.0 | 0.9 | 0.00 | 0.00 | 0.00 | 83 | 1017.0 |
| 20260507212006 | 49 | 45 | 0.0 | 1.7 | 0.00 | 0.00 | 0.00 | 82 | 1017.0 |
| 20260507211003 | 49 | 45 | 0.0 | 1.7 | 0.00 | 0.00 | 0.00 | 82 | 1016.9 |
| 20260507210214 | 49 | 0 | 0.0 | 0.0 | 0.00 | 0.00 | 0.00 | 81 | 1016.9 |
| 20260507205003 | 49 | 51 | 0.0 | 1.7 | 0.00 | 0.00 | 0.00 | 81 | 1017.1 |
| 20260507204005 | 49 | 90 | 0.0 | 1.7 | 0.00 | 0.00 | 0.00 | 81 | 1017.0 |
| 20260507203003 | 49 | 102 | 0.0 | 1.7 | 0.00 | 0.00 | 0.00 | 80 | 1016.9 |
| 20260507202005 | 49 | 135 | 0.0 | 1.7 | 0.00 | 0.00 | 0.00 | 80 | 1016.8 |
| 20260507201005 | 49 | 142 | 0.9 | 1.7 | 0.00 | 0.00 | 0.00 | 79 | 1016.7 |
| 20260507200006 | 49 | 137 | 0.9 | 1.7 | 0.00 | 0.00 | 0.00 | 79 | 1016.6 |
| 20260507195004 | 50 | 132 | 0.9 | 1.7 | 0.00 | 0.00 | 0.00 | 78 | 1016.5 |
| 20260507194217 | 50 | 120 | 0.9 | 3.5 | 0.00 | 0.00 | 0.00 | 78 | 1016.5 |
| 20260507193005 | 50 | 100 | 0.9 | 2.6 | 0.00 | 0.00 | 0.00 | 77 | 1016.4 |
| 20260507192005 | 51 | 149 | 1.7 | 3.5 | 0.00 | 0.00 | 0.00 | 77 | 1016.4 |
| 20260507191220 | 51 | 150 | 1.7 | 3.5 | 0.00 | 0.00 | 0.00 | 76 | 1016.4 |
| 20260507190216 | 51 | 132 | 1.7 | 3.5 | 0.00 | 0.00 | 0.00 | 76 | 1016.4 |
| 20260507185005 | 51 | 153 | 1.7 | 3.5 | 0.00 | 0.00 | 0.00 | 75 | 1016.6 |
| 20260507184213 | 51 | 86 | 2.6 | 6.1 | 0.00 | 0.00 | 0.00 | 75 | 1016.6 |
| 20260507183005 | 51 | 134 | 2.6 | 5.2 | 0.00 | 0.00 | 0.00 | 74 | 1016.5 |
| 20260507182004 | 51 | 147 | 2.6 | 5.2 | 0.00 | 0.00 | 0.00 | 73 | 1016.5 |
| 20260507181005 | 52 | 132 | 2.6 | 4.3 | 0.00 | 0.00 | 0.00 | 73 | 1016.4 |
| 20260507180005 | 52 | 136 | 3.5 | 7.0 | 0.00 | 0.00 | 0.00 | 73 | 1016.4 |
| 20260507175005 | 52 | 143 | 4.3 | 7.8 | 0.00 | 0.00 | 0.00 | 72 | 1016.3 |
| 20260507174006 | 52 | 161 | 4.3 | 9.6 | 0.00 | 0.00 | 0.00 | 72 | 1016.3 |
| 20260507173004 | 53 | 148 | 3.5 | 8.7 | 0.00 | 0.00 | 0.00 | 71 | 1016.4 |
| 20260507172003 | 53 | 127 | 2.6 | 7.0 | 0.00 | 0.00 | 0.00 | 71 | 1016.2 |
| 20260507171005 | 54 | 136 | 2.6 | 7.0 | 0.00 | 0.00 | 0.00 | 70 | 1016.4 |
| 20260507170005 | 54 | 133 | 2.6 | 6.1 | 0.00 | 0.00 | 0.00 | 70 | 1016.4 |
| 20260507165005 | 54 | 125 | 3.5 | 7.0 | 0.00 | 0.00 | 0.00 | 69 | 1016.4 |
| 20260507164003 | 54 | 152 | 3.5 | 7.0 | 0.00 | 0.00 | 0.00 | 68 | 1016.5 |
| 20260507163005 | 54 | 146 | 3.5 | 7.0 | 0.00 | 0.00 | 0.00 | 68 | 1016.4 |
| 20260507162004 | 55 | 118 | 3.5 | 7.0 | 0.00 | 0.00 | 0.00 | 62 | 1016.6 |
| 20260507161003 | 56 | 213 | 2.6 | 5.2 | 0.00 | 0.00 | 0.00 | 62 | 1016.5 |
| 20260507160005 | 56 | 112 | 3.5 | 7.0 | 0.00 | 0.00 | 0.00 | 61 | 1016.5 |
| 20260507155007 | 56 | 113 | 3.5 | 7.0 | 0.00 | 0.00 | 0.00 | 62 | 1016.7 |
| 20260507154005 | 55 | 132 | 3.5 | 7.8 | 0.00 | 0.01 | 0.00 | 61 | 1016.5 |
| 20260507153004 | 56 | 126 | 4.3 | 8.7 | 0.00 | 0.02 | 0.00 | 61 | 1016.4 |
| 20260507152005 | 56 | 178 | 3.5 | 7.8 | 0.00 | 0.04 | 0.00 | 60 | 1016.5 |
| 20260507151005 | 58 | 129 | 3.5 | 8.7 | 0.00 | 0.04 | 0.00 | 59 | 1016.4 |
| 20260507150005 | 58 | 136 | 4.3 | 8.7 | 0.00 | 0.04 | 0.00 | 57 | 1016.4 |
| 20260507145005 | 60 | 118 | 3.5 | 7.0 | 0.00 | 0.04 | 0.00 | 56 | 1016.4 |
| 20260507144220 | 60 | 134 | 4.3 | 9.6 | 0.00 | 0.04 | 0.00 | 55 | 1016.4 |
| 20260507143216 | 60 | 140 | 4.3 | 9.6 | 0.00 | 0.04 | 0.00 | 53 | 1016.5 |
| 20260507142005 | 61 | 133 | 4.3 | 9.6 | 0.00 | 0.04 | 0.00 | 52 | 1016.3 |
| 20260507141003 | 61 | 95 | 4.3 | 7.8 | 0.00 | 0.04 | 0.00 | 56 | 1016.3 |
| 20260507140006 | 61 | 131 | 4.3 | 10.4 | 0.00 | 0.04 | 0.00 | 56 | 1016.3 |
| 20260507135215 | 62 | 124 | 4.3 | 7.8 | 0.00 | 0.04 | 0.00 | 53 | 1016.3 |
| 20260507134216 | 62 | 94 | 4.3 | 9.6 | 0.00 | 0.04 | 0.00 | 54 | 1016.5 |
| 20260507133003 | 61 | 116 | 4.3 | 8.7 | 0.00 | 0.05 | 0.00 | 57 | 1016.4 |
| 20260507132217 | 60 | 114 | 4.3 | 8.7 | 0.00 | 0.05 | 0.00 | 57 | 1016.3 |
| 20260507131006 | 60 | 145 | 3.5 | 7.0 | 0.00 | 0.05 | 0.00 | 56 | 1016.2 |
| 20260507130005 | 62 | 132 | 3.5 | 7.0 | 0.00 | 0.05 | 0.00 | 53 | 1016.2 |
| 20260507125003 | 61 | 149 | 3.5 | 7.8 | 0.00 | 0.05 | 0.00 | 57 | 1016.1 |
| 20260507124004 | 60 | 131 | 4.3 | 9.6 | 0.00 | 0.05 | 0.00 | 57 | 1016.1 |
| 20260507123003 | 59 | 174 | 4.3 | 8.7 | 0.00 | 0.06 | 0.00 | 56 | 1016.0 |
| 20260507122006 | 58 | 149 | 3.5 | 7.0 | 0.00 | 0.06 | 0.00 | 60 | 1016.2 |
| 20260507121005 | 58 | 177 | 5.2 | 8.7 | 0.00 | 0.06 | 0.00 | 58 | 1016.1 |
| 20260507120005 | 61 | 156 | 1.7 | 7.0 | 0.00 | 0.06 | 0.00 | 60 | 1016.1 |
| 20260507115003 | 58 | 118 | 3.5 | 7.0 | 0.00 | 0.06 | 0.00 | 60 | 1016.0 |
| 20260507114005 | 58 | 153 | 3.5 | 8.7 | 0.00 | 0.06 | 0.00 | 60 | 1016.0 |
| 20260507113006 | 58 | 145 | 3.5 | 8.7 | 0.00 | 0.06 | 0.00 | 57 | 1016.1 |
| 20260507112004 | 59 | 60 | 3.5 | 7.0 | 0.00 | 0.06 | 0.00 | 61 | 1016.0 |
| 20260507111005 | 58 | 56 | 3.5 | 7.0 | 0.00 | 0.06 | 0.00 | 63 | 1016.1 |
| 20260507110004 | 57 | 87 | 3.5 | 7.0 | 0.00 | 0.06 | 0.00 | 62 | 1016.2 |
| 20260507105006 | 56 | 70 | 3.5 | 7.0 | 0.00 | 0.06 | 0.00 | 63 | 1016.3 |
| 20260507104005 | 57 | 82 | 2.6 | 5.2 | 0.00 | 0.06 | 0.00 | 61 | 1016.2 |
| 20260507103006 | 58 | 91 | 2.6 | 5.2 | 0.00 | 0.06 | 0.00 | 61 | 1016.3 |
| 20260507102006 | 60 | 81 | 2.6 | 5.2 | 0.00 | 0.06 | 0.00 | 61 | 1016.2 |
| 20260507101005 | 58 | 22 | 2.6 | 7.0 | 0.00 | 0.06 | 0.00 | 62 | 1016.0 |
| 20260507100007 | 57 | 3 | 1.7 | 3.5 | 0.00 | 0.06 | 0.00 | 67 | 1016.0 |
| 20260507095006 | 54 | 61 | 3.5 | 5.2 | 0.00 | 0.06 | 0.00 | 66 | 1016.0 |
| 20260507094004 | 55 | 33 | 3.5 | 7.0 | 0.00 | 0.06 | 0.00 | 66 | 1015.8 |
| 20260507093003 | 56 | 60 | 2.6 | 6.1 | 0.00 | 0.06 | 0.00 | 65 | 1015.8 |
| 20260507092004 | 54 | 140 | 1.7 | 3.5 | 0.00 | 0.06 | 0.00 | 70 | 1015.9 |
| 20260507091216 | 55 | 128 | 1.7 | 3.5 | 0.00 | 0.06 | 0.00 | 69 | 1015.9 |
| 20260507090006 | 54 | 111 | 1.7 | 3.5 | 0.00 | 0.06 | 0.00 | 72 | 1015.8 |
| 20260507085005 | 53 | 43 | 2.6 | 3.5 | 0.00 | 0.06 | 0.00 | 71 | 1015.7 |
| 20260507084005 | 53 | 86 | 1.7 | 3.5 | 0.00 | 0.06 | 0.00 | 72 | 1015.7 |
| 20260507083004 | 53 | 34 | 1.7 | 3.5 | 0.00 | 0.06 | 0.00 | 72 | 1015.6 |
| 20260507082003 | 53 | 77 | 1.7 | 3.5 | 0.00 | 0.06 | 0.00 | 72 | 1015.7 |
| 20260507081006 | 54 | 94 | 1.7 | 3.5 | 0.00 | 0.06 | 0.00 | 70 | 1015.6 |
| 20260507080006 | 54 | 105 | 2.6 | 3.5 | 0.00 | 0.06 | 0.00 | 71 | 1015.5 |
| 20260507075004 | 54 | 88 | 1.7 | 3.5 | 0.00 | 0.06 | 0.00 | 74 | 1015.5 |
| 20260507074003 | 53 | 125 | 1.7 | 5.2 | 0.00 | 0.06 | 0.00 | 76 | 1015.3 |
| 20260507073005 | 51 | 114 | 2.6 | 5.2 | 0.00 | 0.06 | 0.00 | 74 | 1015.3 |
| 20260507072006 | 53 | 47 | 2.6 | 5.2 | 0.00 | 0.06 | 0.00 | 80 | 1015.2 |
| 20260507071005 | 52 | 52 | 1.7 | 4.3 | 0.00 | 0.06 | 0.00 | 85 | 1015.3 |
| 20260507070006 | 51 | 67 | 2.6 | 5.2 | 0.00 | 0.06 | 0.00 | 91 | 1015.2 |
| 20260507065006 | 50 | 66 | 2.6 | 4.3 | 0.00 | 0.06 | 0.00 | 96 | 1015.3 |
| 20260507064004 | 49 | 66 | 1.7 | 3.5 | 0.00 | 0.06 | 0.00 | 99 | 1015.2 |
| 20260507063006 | 47 | 61 | 1.7 | 3.5 | 0.00 | 0.06 | 0.00 | 99 | 1015.2 |
| 20260507062005 | 47 | 81 | 1.7 | 3.5 | 0.00 | 0.06 | 0.00 | 99 | 1015.2 |
| 20260507061218 | 46 | 37 | 0.9 | 1.7 | 0.00 | 0.06 | 0.00 | 99 | 1015.1 |
| 20260507060219 | 44 | 45 | 0.0 | 1.7 | 0.00 | 0.06 | 0.00 | 99 | 1015.1 |
| 20260507055003 | 43 | 45 | 0.0 | 1.7 | 0.00 | 0.06 | 0.00 | 99 | 1014.9 |
| 20260507054003 | 41 | 45 | 0.0 | 1.7 | 0.00 | 0.06 | 0.00 | 99 | 1015.1 |
| 20260507053217 | 40 | 0 | 0.0 | 0.0 | 0.00 | 0.06 | 0.00 | 99 | 1014.9 |
| 20260507052005 | 39 | 315 | 0.0 | 0.9 | 0.00 | 0.06 | 0.00 | 99 | 1014.8 |
| 20260507051213 | 39 | 315 | 0.0 | 1.7 | 0.00 | 0.06 | 0.00 | 99 | 1014.8 |
| 20260507050008 | 39 | 315 | 0.9 | 1.7 | 0.00 | 0.06 | 0.00 | 99 | 1014.9 |
| 20260507045005 | 39 | 315 | 0.0 | 1.7 | 0.00 | 0.06 | 0.00 | 99 | 1014.7 |
| 20260507044005 | 38 | 315 | 0.0 | 1.7 | 0.00 | 0.06 | 0.00 | 99 | 1014.7 |
| 20260507043003 | 39 | 315 | 0.9 | 1.7 | 0.00 | 0.06 | 0.00 | 99 | 1014.5 |
| 20260507042006 | 39 | 315 | 0.9 | 1.7 | 0.00 | 0.06 | 0.00 | 99 | 1014.4 |
| 20260507041006 | 39 | 335 | 0.0 | 1.7 | 0.00 | 0.06 | 0.00 | 99 | 1014.3 |
| 20260507040004 | 39 | 360 | 0.0 | 1.7 | 0.00 | 0.06 | 0.00 | 99 | 1014.2 |
| 20260507035003 | 40 | 360 | 0.0 | 1.7 | 0.00 | 0.06 | 0.00 | 99 | 1014.1 |
| 20260507034007 | 40 | 10 | 0.9 | 1.7 | 0.00 | 0.06 | 0.00 | 99 | 1014.2 |
| 20260507033003 | 40 | 45 | 0.0 | 1.7 | 0.00 | 0.06 | 0.00 | 99 | 1014.2 |
| 20260507032005 | 40 | 45 | 0.9 | 1.7 | 0.00 | 0.06 | 0.00 | 99 | 1014.3 |
| 20260507031004 | 40 | 45 | 0.9 | 1.7 | 0.00 | 0.06 | 0.00 | 99 | 1014.2 |
| 20260507030005 | 40 | 8 | 0.9 | 2.6 | 0.00 | 0.06 | 0.00 | 99 | 1014.2 |
| 20260507025006 | 40 | 18 | 0.9 | 2.6 | 0.00 | 0.06 | 0.00 | 99 | 1014.3 |
| 20260507024218 | 40 | 16 | 0.9 | 2.6 | 0.00 | 0.06 | 0.00 | 99 | 1014.2 |
| 20260507023003 | 40 | 360 | 0.0 | 1.7 | 0.00 | 0.06 | 0.00 | 99 | 1014.2 |
| 20260507022005 | 40 | 14 | 0.0 | 1.7 | 0.00 | 0.06 | 0.00 | 98 | 1014.2 |
| 20260507021006 | 40 | 0 | 0.0 | 0.9 | 0.00 | 0.06 | 0.00 | 98 | 1014.1 |
| 20260507020005 | 40 | 360 | 0.0 | 1.7 | 0.00 | 0.06 | 0.00 | 98 | 1014.1 |
| 20260507015217 | 40 | 1 | 0.9 | 1.7 | 0.00 | 0.06 | 0.00 | 98 | 1014.1 |
| 20260507014003 | 41 | 14 | 0.9 | 2.6 | 0.00 | 0.06 | 0.00 | 97 | 1014.0 |
| 20260507013004 | 41 | 41 | 0.9 | 2.6 | 0.00 | 0.06 | 0.00 | 97 | 1013.9 |
| 20260507012006 | 41 | 41 | 0.9 | 2.6 | 0.00 | 0.06 | 0.00 | 97 | 1014.0 |
| 20260507010217 | 41 | 360 | 0.9 | 1.7 | 0.00 | 0.06 | 0.00 | 96 | 1014.0 |
| 20260507005006 | 42 | 15 | 0.9 | 1.7 | 0.00 | 0.06 | 0.00 | 96 | 1014.0 |
| 20260507004003 | 42 | 9 | 0.9 | 1.7 | 0.00 | 0.06 | 0.00 | 96 | 1014.0 |
| 20260507003220 | 42 | 360 | 0.9 | 1.7 | 0.00 | 0.06 | 0.00 | 95 | 1014.0 |
| 20260507002216 | 42 | 20 | 0.9 | 1.7 | 0.00 | 0.06 | 0.00 | 95 | 1014.1 |
| 20260507001003 | 43 | 8 | 0.9 | 1.7 | 0.00 | 0.06 | 0.00 | 95 | 1014.1 |
| 20260507000004 | 43 | 7 | 0.9 | 2.6 | 0.00 | 0.06 | 0.00 | 95 | 1014.2 |
| 20260506235005 | 44 | 34 | 1.7 | 2.6 | 0.00 | 0.06 | 0.00 | 95 | 1014.2 |
| 20260506234003 | 44 | 45 | 1.7 | 3.5 | 0.00 | 0.06 | 0.00 | 95 | 1014.2 |
| 20260506233005 | 44 | 19 | 1.7 | 3.5 | 0.00 | 0.06 | 0.00 | 95 | 1014.1 |